Wind_Speed
27 26 26 26 25 25 25 25 25 26 26 26 25 25 25 25 26 26 26 26 26 25 25 24 24 24 25 25 25 25 26 26 26 27 27 27 28 28 28 29 29 30 31
28 28 27 26 26 26 26 26 27 27 26 27 26 26 27 27 26 27 27 27 26 26 26 25 25 25 26 26 26 26 26 27 27 27 28 28 29 29 30 31 31 32 32
30 30 29 28 28 28 28 27 26 27 28 28 28 28 28 28 28 28 28 28 27 27 27 27 27 27 28 28 28 28 28 28 29 29 30 30 30 31 31 32 33 33 34
31 31 31 30 29 28 28 28 27 28 29 30 31 31 31 30 29 29 29 29 29 29 29 30 30 30 30 30 30 30 30 30 31 31 32 32 32 33 33 34 34 35 35
32 32 31 31 31 30 29 30 31 31 31 31 31 32 32 31 30 30 30 31 30 30 31 31 31 32 32 31 32 32 32 33 33 33 34 35 35 36 36 37 37 37 37
31 32 32 32 32 31 31 32 32 33 33 32 32 32 32 32 32 32 33 33 32 32 32 33 33 33 34 34 34 35 35 36 36 36 37 37 38 38 39 39 39 39 39
32 33 34 34 34 33 33 34 34 34 34 33 33 33 34 34 34 34 34 34 34 34 34 35 35 35 35 36 36 37 37 38 38 39 39 40 41 41 41 41 41 41 41
33 34 34 35 36 36 36 36 35 35 35 35 35 35 36 35 35 35 35 35 36 36 36 37 37 37 37 38 39 39 40 40 41 41 42 43 44 44 44 44 44 44 43
33 34 34 35 36 37 37 37 36 36 36 36 36 36 36 36 36 36 36 37 37 38 38 39 39 39 40 40 41 42 43 43 44 45 45 46 46 46 46 46 46 46 45
35 35 36 37 37 37 38 38 38 38 37 37 37 37 37 37 37 37 38 38 39 39 40 41 41 41 42 43 43 44 45 46 47 47 48 49 49 49 49 49 48 48 48
35 36 37 38 38 38 39 38 38 38 38 38 37 37 38 38 39 39 40 40 40 41 42 43 43 44 45 45 45 46 47 48 49 50 51 51 51 51 51 50 50 50 50
37 38 38 38 38 38 38 38 38 38 38 38 38 38 38 39 40 41 41 40 40 41 43 43 44 45 46 46 47 48 49 50 51 52 52 53 52 52 51 51 51 51 51
37 37 37 38 38 39 39 39 39 38 38 38 39 39 40 40 41 41 42 42 41 42 43 44 45 46 47 48 48 49 50 52 53 53 53 53 53 52 52 52 52 52 52
37 36 36 37 38 38 39 40 40 39 39 40 40 40 41 41 41 41 42 43 43 44 45 45 46 47 48 49 50 51 52 53 53 53 53 53 53 53 53 53 53 53 52
36 36 36 37 38 39 40 40 40 41 41 41 42 42 41 41 42 43 44 44 45 46 47 47 48 49 50 50 51 52 52 52 52 52 52 52 52 52 52 52 52 52 51
37 37 38 39 39 39 40 41 42 42 42 43 43 44 44 44 44 44 45 46 47 48 49 50 50 50 51 52 53 52 52 52 52 52 52 51 51 51 51 51 51 51 51
39 39 40 40 40 40 41 41 43 43 44 44 45 45 45 46 47 47 48 48 48 49 49 50 51 52 52 52 53 53 53 53 53 52 52 52 52 51 51 51 51 51 50
41 41 42 42 42 42 43 43 44 45 45 46 46 46 47 47 48 49 49 49 50 50 50 50 50 51 52 52 52 52 52 52 51 52 52 52 51 51 50 50 50 50 49
42 43 43 43 44 44 44 45 45 46 46 46 47 47 48 48 48 49 49 50 50 50 51 51 51 52 52 53 53 53 53 52 52 51 51 51 51 50 50 49 49 48 48
43 44 44 45 45 45 46 46 46 46 47 47 48 48 49 49 49 49 50 50 50 51 51 51 52 52 53 53 53 53 53 53 52 52 52 52 51 50 50 49 49 48 48
44 44 45 45 46 47 47 47 47 47 48 48 48 49 49 50 49 50 50 50 50 51 51 51 52 53 53 54 54 54 53 53 52 52 52 52 51 51 51 50 49 49 48
45 45 45 46 46 47 47 48 48 48 48 49 49 49 49 50 50 50 51 51 51 52 52 52 53 53 53 53 53 53 53 53 52 51 51 51 51 51 51 50 50 49 49
45 46 46 46 46 47 48 48 48 49 49 50 50 50 50 50 50 51 51 52 52 52 53 53 53 53 53 53 53 53 53 53 52 52 51 51 51 51 50 50 50 49 48
46 47 47 47 47 48 49 49 49 49 50 50 50 50 50 50 51 52 52 53 53 53 54 54 54 54 54 54 53 53 52 52 52 52 51 50 50 50 50 50 49 49 48
47 47 47 47 48 48 49 49 50 50 50 51 51 51 51 51 52 53 53 54 54 54 54 54 54 54 54 53 53 53 52 52 52 51 50 49 49 49 49 49 49 48 48
47 47 47 48 49 49 50 50 50 50 50 50 50 51 51 52 52 53 53 54 54 54 54 54 53 53 53 53 53 53 52 52 51 50 49 49 48 48 47 47 48 47 47
Wind_Direction
248 251 254 256 259 261 264 267 269 272 273 275 277 278 281 283 285 286 288 288 289 290 290 290 290 289 289 289 289 289 288 287 287 288 288 289 289 289 287 287 287 287 286
249 251 254 256 258 259 262 266 269 271 274 277 277 278 281 284 285 286 286 287 287 287 287 288 288 288 288 289 289 289 289 288 288 288 289 290 290 289 288 287 286 286 286
250 252 253 256 259 261 262 265 269 273 275 277 279 281 282 282 283 284 284 284 285 285 285 286 286 287 287 287 287 287 287 288 287 287 288 289 289 289 288 287 286 286 286
250 252 253 256 261 263 264 267 271 275 276 278 279 280 281 281 281 283 283 283 283 284 284 285 286 286 287 287 286 286 287 287 287 287 288 288 288 288 287 287 286 286 285
252 253 256 259 261 264 266 269 272 274 277 278 279 279 280 281 280 281 281 281 282 283 284 284 285 286 286 286 286 286 287 287 287 288 288 288 288 288 287 286 286 286 285
254 255 258 261 262 264 267 271 274 275 277 277 278 278 279 279 279 280 280 281 281 282 283 284 284 285 285 285 286 287 287 287 287 288 288 288 288 287 286 286 286 285 285
258 260 261 262 263 265 269 272 274 275 275 277 278 278 278 279 279 279 280 280 281 282 283 284 284 285 285 286 286 286 286 286 287 287 288 288 287 286 285 285 285 284 283
261 262 264 265 265 266 269 272 273 275 276 277 277 278 278 278 278 278 279 281 281 282 283 284 285 285 285 285 286 286 286 286 286 287 287 287 286 286 285 284 283 283 283
264 265 265 265 266 267 269 271 272 274 276 278 279 280 279 278 278 278 279 280 281 281 283 284 285 285 285 285 286 286 286 285 285 286 286 286 285 285 284 283 282 282 282
266 267 268 267 268 269 270 271 272 274 276 277 279 279 279 278 277 277 279 280 280 281 282 284 284 285 286 286 286 286 286 285 285 285 286 286 285 284 283 283 282 281 281
266 267 267 268 269 270 269 269 272 274 275 276 277 277 278 278 278 279 279 279 280 281 283 283 284 285 286 286 286 286 286 286 286 286 286 286 285 284 283 283 282 282 282
268 269 270 270 268 268 270 269 271 272 274 275 276 276 278 279 280 281 281 280 281 282 282 283 284 285 285 286 286 286 286 286 286 285 285 285 285 284 283 283 282 282 282
270 270 271 270 269 270 271 270 270 272 273 275 276 277 278 279 280 281 281 280 280 281 282 283 284 284 285 286 286 287 286 286 286 286 286 285 284 284 283 283 283 283 283
269 270 270 270 270 270 270 270 270 272 273 275 277 277 278 278 279 280 280 280 280 280 282 283 284 285 286 287 288 288 288 287 287 286 286 285 285 284 284 283 283 283 283
270 269 269 270 270 270 270 271 271 272 274 275 276 277 278 279 279 280 280 280 280 280 281 283 284 286 287 288 289 289 289 288 287 287 286 286 285 285 285 284 284 284 283
271 272 272 271 271 270 271 271 272 272 274 275 276 277 277 278 279 280 281 281 282 282 282 283 284 285 287 288 289 289 289 289 288 287 287 286 286 286 286 285 284 284 283
273 273 272 271 270 271 271 272 273 273 274 275 277 278 279 279 279 280 281 283 284 284 284 285 285 286 287 288 289 289 290 290 289 288 287 287 287 287 287 286 285 284 283
274 274 272 271 270 271 271 272 274 275 275 276 277 278 280 281 281 281 282 283 284 285 285 286 286 287 288 288 289 290 290 290 290 289 288 288 287 287 286 286 285 284 284
274 274 273 272 271 271 272 273 274 275 276 277 278 280 281 281 281 281 282 283 284 285 286 286 287 287 288 289 289 290 290 290 290 289 289 288 287 287 286 285 285 285 284
275 274 274 273 272 272 272 273 274 275 276 278 279 279 281 281 281 282 282 283 284 285 286 286 287 288 289 289 289 289 290 290 289 289 289 288 287 287 286 285 285 285 285
276 275 275 274 274 274 274 274 274 275 276 277 278 280 280 281 281 281 282 283 284 285 286 286 287 288 289 289 289 289 289 289 289 289 289 288 287 287 286 285 285 285 285
276 276 275 275 275 275 274 274 274 275 275 277 278 279 280 280 281 281 282 283 284 285 285 286 287 288 288 288 288 288 288 288 288 288 288 287 287 286 285 285 284 285 285
276 276 276 275 275 275 275 275 275 275 276 277 277 278 279 280 281 282 283 283 284 284 285 286 287 288 288 287 287 287 287 287 287 287 287 287 286 286 286 285 285 285 284
276 276 276 276 275 275 275 275 276 277 277 277 278 279 279 280 281 282 282 283 283 284 285 285 286 286 286 286 286 286 287 287 286 287 286 286 285 286 286 286 285 285 284
277 277 276 276 275 276 276 276 276 277 277 278 279 279 279 280 281 281 282 283 284 284 284 285 285 286 286 286 286 286 287 287 287 286 286 286 285 285 285 286 285 285 284
276 276 276 276 276 276 276 277 277 278 278 278 279 279 280 280 281 282 283 283 284 284 284 284 284 285 285 286 286 287 287 286 286 285 285 285 285 284 285 285 285 285 285
Height
5827 5829 5830 5831 5831 5832 5832 5832 5832 5832 5832 5831 5830 5830 5829 5828 5827 5826 5824 5823 5822 5820 5819 5817 5816 5814 5813 5811 5810 5808 5807 5805 5804 5803 5801 5800 5798 5797 5795 5794 5793 5791 5789
5822 5824 5825 5825 5826 5827 5827 5827 5827 5827 5826 5826 5825 5824 5824 5823 5822 5820 5819 5817 5816 5815 5813 5812 5810 5809 5808 5806 5804 5803 5801 5800 5798 5797 5795 5794 5792 5791 5789 5787 5786 5784 5783
5817 5818 5819 5820 5821 5821 5821 5821 5821 5821 5821 5820 5819 5819 5818 5817 5816 5814 5813 5812 5810 5809 5808 5806 5805 5803 5802 5800 5799 5797 5796 5794 5792 5791 5789 5787 5786 5784 5782 5780 5779 5777 5775
5811 5813 5814 5815 5815 5815 5815 5816 5816 5815 5815 5814 5813 5813 5812 5810 5809 5808 5807 5805 5804 5803 5801 5800 5799 5797 5795 5794 5792 5791 5789 5787 5786 5784 5782 5780 5779 5777 5775 5773 5771 5769 5767
5805 5807 5808 5808 5809 5809 5809 5810 5809 5809 5808 5808 5807 5806 5805 5804 5803 5801 5800 5799 5798 5796 5795 5793 5792 5790 5789 5787 5785 5784 5782 5780 5779 5777 5775 5773 5771 5769 5767 5765 5763 5761 5759
5799 5800 5801 5802 5802 5803 5803 5803 5802 5802 5802 5801 5800 5799 5798 5797 5796 5795 5793 5792 5791 5789 5788 5786 5785 5783 5781 5780 5778 5776 5774 5772 5770 5769 5767 5765 5762 5760 5758 5756 5754 5752 5750
5792 5793 5794 5795 5795 5796 5796 5796 5795 5795 5794 5794 5793 5792 5791 5790 5788 5787 5786 5785 5783 5782 5780 5779 5777 5775 5774 5772 5770 5768 5766 5764 5762 5760 5758 5755 5753 5751 5749 5747 5745 5743 5741
5785 5786 5787 5787 5788 5788 5788 5788 5788 5787 5787 5786 5785 5784 5783 5783 5780 5779 5778 5777 5775 5774 5772 5770 5769 5767 5765 5763 5761 5759 5757 5754 5752 5750 5748 5745 5743 5741 5738 5736 5734 5732 5730
5778 5778 5779 5779 5780 5780 5780 5780 5780 5779 5779 5778 5777 5776 5775 5774 5773 5771 5770 5768 5767 5765 5763 5761 5760 5758 5756 5753 5751 5749 5747 5745 5742 5740 5737 5735 5732 5729 5727 5725 5723 5721 5719
5771 5771 5771 5771 5771 5771 5771 5771 5771 5771 5770 5769 5769 5767 5766 5765 5764 5763 5761 5759 5757 5756 5754 5752 5750 5748 5746 5744 5741 5739 5736 5734 5731 5728 5725 5723 5720 5717 5715 5712 5710 5708 5706
5762 5762 5762 5762 5763 5763 5762 5762 5762 5761 5761 5760 5759 5758 5757 5756 5754 5754 5752 5750 5748 5746 5745 5743 5740 5738 5736 5733 5731 5728 5725 5722 5719 5716 5713 5710 5707 5704 5702 5700 5698 5696 5694
5754 5754 5754 5753 5753 5753 5753 5752 5752 5752 5751 5750 5749 5748 5747 5746 5745 5743 5742 5740 5738 5736 5734 5732 5729 5727 5725 5722 5719 5716 5713 5710 5707 5704 5700 5697 5694 5691 5689 5686 5684 5682 5680
5745 5745 5744 5744 5744 5744 5743 5743 5742 5742 5741 5740 5739 5738 5737 5736 5734 5733 5731 5730 5728 5725 5723 5721 5718 5716 5713 5710 5707 5704 5700 5697 5694 5690 5687 5684 5681 5678 5675 5673 5670 5668 5666
5736 5735 5735 5734 5734 5734 5733 5732 5732 5731 5731 5730 5729 5728 5726 5725 5723 5722 5720 5718 5717 5714 5712 5709 5706 5703 5700 5697 5694 5691 5687 5683 5680 5676 5673 5670 5667 5664 5661 5659 5656 5654 5652
5726 5726 5725 5725 5724 5723 5723 5722 5721 5721 5720 5719 5718 5717 5715 5714 5712 5710 5709 5707 5705 5703 5701 5697 5694 5691 5687 5684 5681 5677 5674 5670 5666 5663 5659 5656 5653 5650 5647 5644 5642 5639 5637
5717 5716 5716 5715 5714 5713 5712 5712 5711 5710 5709 5708 5707 5705 5704 5702 5700 5698 5697 5694 5692 5690 5688 5685 5681 5678 5674 5671 5667 5664 5660 5656 5653 5649 5645 5642 5639 5636 5633 5630 5628 5625 5623
5707 5706 5705 5704 5703 5703 5702 5701 5700 5699 5698 5697 5695 5694 5692 5690 5688 5686 5684 5682 5679 5677 5675 5672 5668 5665 5661 5658 5654 5650 5646 5643 5639 5635 5632 5629 5625 5622 5619 5616 5614 5611 5609
5696 5695 5694 5693 5692 5691 5691 5690 5689 5687 5686 5685 5683 5682 5680 5678 5676 5673 5671 5668 5666 5663 5661 5659 5655 5651 5648 5644 5640 5636 5632 5629 5625 5621 5618 5614 5611 5608 5605 5602 5600 5597 5595
5684 5683 5682 5681 5680 5679 5678 5677 5676 5675 5674 5672 5671 5669 5667 5665 5663 5660 5658 5655 5653 5650 5647 5645 5642 5638 5634 5630 5627 5623 5618 5615 5611 5607 5604 5600 5597 5594 5591 5589 5586 5584 5581
5672 5671 5670 5669 5668 5667 5666 5664 5663 5662 5661 5659 5658 5656 5654 5652 5649 5647 5644 5642 5639 5636 5634 5631 5628 5624 5621 5616 5613 5609 5605 5601 5597 5593 5590 5586 5583 5580 5578 5575 5573 5570 5568
5660 5658 5657 5656 5655 5654 5653 5651 5650 5649 5648 5646 5645 5643 5640 5638 5636 5633 5631 5628 5626 5623 5620 5617 5614 5610 5606 5602 5599 5595 5591 5587 5583 5579 5576 5572 5569 5567 5564 5561 5559 5556 5554
5647 5645 5644 5643 5642 5640 5639 5638 5637 5636 5634 5633 5631 5629 5627 5625 5622 5620 5617 5614 5612 5609 5606 5603 5599 5596 5592 5588 5584 5580 5577 5574 5570 5567 5562 5558 5555 5552 5549 5547 5545 5542 5540
5634 5632 5631 5630 5628 5627 5625 5624 5623 5622 5621 5619 5617 5615 5613 5611 5608 5606 5603 5601 5598 5594 5591 5588 5585 5581 5577 5573 5570 5566 5562 5558 5555 5552 5548 5545 5541 5538 5535 5533 5530 5528 5526
5621 5619 5618 5616 5615 5613 5612 5610 5609 5608 5606 5605 5603 5601 5599 5596 5594 5591 5589 5586 5583 5579 5576 5573 5570 5566 5562 5558 5554 5551 5547 5544 5540 5537 5534 5532 5528 5524 5521 5518 5516 5514 5512
5607 5606 5604 5602 5601 5599 5598 5596 5595 5594 5592 5590 5588 5586 5584 5582 5579 5576 5574 5571 5568 5564 5560 5557 5554 5550 5546 5542 5539 5536 5532 5529 5527 5523 5520 5517 5515 5512 5508 5505 5502 5500 5497
5594 5592 5590 5588 5586 5585 5583 5582 5580 5579 5578 5576 5574 5572 5569 5567 5564 5561 5558 5556 5553 5549 5545 5542 5539 5535 5531 5528 5524 5521 5518 5515 5512 5509 5506 5503 5501 5498 5496 5493 5489 5486 5484